Estación de Las Viñas

Ultimos registro cada 15 minutos 59
Estación Fecha / Hora Temperatura Humedad Lluvia Velocidad Dirección Radiación Presion
59 Las Viñas 01-09-2026 14:30 17,1 61 0 0,9 2 415 1020,2
58 Las Viñas 01-09-2026 14:15 17,3 59 0 2,2 351 348 1020,4
57 Las Viñas 01-09-2026 14:00 17,6 62 0 1,8 190 476 1020,8
56 Las Viñas 01-09-2026 13:45 17,3 61 0 2,2 308 661 1020,7
55 Las Viñas 01-09-2026 13:30 17,1 63 0 1,3 30 334 1021,1
54 Las Viñas 01-09-2026 13:15 17,1 62 0 0,4 333 380 1021
53 Las Viñas 01-09-2026 13:00 16,9 61 0 2,2 28 374 1021,4
52 Las Viñas 01-09-2026 12:45 16,8 63 0 1,3 48 455 1021,5
51 Las Viñas 01-09-2026 12:30 16,8 65 0 1,3 308 475 1022,1
50 Las Viñas 01-09-2026 12:15 16,6 68 0 0,9 25 853 1022,5
49 Las Viñas 01-09-2026 12:00 16,3 72 0 0,4 355 547 1022,7
48 Las Viñas 01-09-2026 11:45 16,1 71 0 0,9 310 434 1022,8
47 Las Viñas 01-09-2026 11:30 16,1 69 0 0,4 283 350 1023
46 Las Viñas 01-09-2026 11:15 15,8 68 0 0 341 425 1022,8
45 Las Viñas 01-09-2026 11:00 15,4 75 0 0,4 235 636 1023
44 Las Viñas 01-09-2026 10:45 14,6 76 0 0,4 12 383 1023
43 Las Viñas 01-09-2026 10:30 14,1 82 0 0,4 322 360 1023,2
42 Las Viñas 01-09-2026 10:15 13,4 85 0 0,4 343 329 1023,2
41 Las Viñas 01-09-2026 10:00 12,8 86 0 0,4 30 431 1023,7
40 Las Viñas 01-09-2026 09:45 12 83 0 0,9 310 480 1023,6
39 Las Viñas 01-09-2026 09:30 10,9 75 0 0,9 312 411 1023,7
38 Las Viñas 01-09-2026 09:15 10,2 72 0 0,9 6 229 1023,5
37 Las Viñas 01-09-2026 09:00 9,4 72 0 0 50 188 1023,7
36 Las Viñas 01-09-2026 08:45 8,7 73 0 0 355 46 1023,6
35 Las Viñas 01-09-2026 08:30 8,3 73 0 0 355 60 1023,6
34 Las Viñas 01-09-2026 08:15 7,9 73 0 0 355 58 1023,8
33 Las Viñas 01-09-2026 08:00 7,5 73 0 0 355 37 1023,5
32 Las Viñas 01-09-2026 07:45 7,2 74 0 0 355 25 1023,2
31 Las Viñas 01-09-2026 07:30 7,1 75 0 0 355 14 1023
30 Las Viñas 01-09-2026 07:15 7 75 0 0 355 5 1022,8
29 Las Viñas 01-09-2026 07:00 6,9 76 0 0 355 0 1022,8
28 Las Viñas 01-09-2026 06:45 6,9 77 0 0 355 0 1022,9
27 Las Viñas 01-09-2026 06:30 7,1 77 0 0 355 0 1023
26 Las Viñas 01-09-2026 06:15 7,3 77 0 0 355 0 1022,8
25 Las Viñas 01-09-2026 06:00 7,7 77 0 0 355 0 1022,7
24 Las Viñas 01-09-2026 05:45 7,9 76 0 0 355 0 1022,5
23 Las Viñas 01-09-2026 05:30 8,2 76 0 0 355 0 1022,5
22 Las Viñas 01-09-2026 05:15 8,3 75 0 0 355 0 1022,4
21 Las Viñas 01-09-2026 05:00 8,4 75 0 0 355 0 1022,3
20 Las Viñas 01-09-2026 04:45 8,2 76 0 0 355 0 1022,3
19 Las Viñas 01-09-2026 04:30 8,4 76 0 0 355 0 1022,4
18 Las Viñas 01-09-2026 04:15 8,5 76 0 0 355 0 1022,4
17 Las Viñas 01-09-2026 04:00 8,7 76 0 0 355 0 1022,5
16 Las Viñas 01-09-2026 03:45 8,8 76 0 0 355 0 1022,4
15 Las Viñas 01-09-2026 03:30 8,9 76 0 0 355 0 1022,5
14 Las Viñas 01-09-2026 03:15 9 76 0 0 355 0 1022,8
13 Las Viñas 01-09-2026 03:00 9 76 0 0 355 0 1022,9
12 Las Viñas 01-09-2026 02:45 9 77 0 0 355 0 1023,2
11 Las Viñas 01-09-2026 02:30 9,1 76 0 0 355 0 1023,2
10 Las Viñas 01-09-2026 02:15 9,1 77 0 0 355 0 1023,5
9 Las Viñas 01-09-2026 02:00 9,1 78 0 0 355 0 1023,6
8 Las Viñas 01-09-2026 01:45 9,1 78 0 0 355 0 1023,6
7 Las Viñas 01-09-2026 01:30 9,2 79 0 0 355 0 1023,7
6 Las Viñas 01-09-2026 01:15 9,3 79 0 0 355 0 1023,9
5 Las Viñas 01-09-2026 01:00 9,4 79 0 0 355 0 1023,7
4 Las Viñas 01-09-2026 00:45 9,6 80 0 0 355 0 1023,7
3 Las Viñas 01-09-2026 00:30 9,7 81 0 0 355 0 1024
2 Las Viñas 01-09-2026 00:15 9,9 81 0 0 355 0 1024
1 Las Viñas 01-09-2026 00:00 10,1 81 0 0 355 0 1024,3